Location: Knowlton
(51.2333°N, 1.2667°E)
Time: 08:53:03
(UTC+00:00)

Cosmos 2237 Rocket - Pass Details

Date: 18 April 2021
Orbit: 836 x 849 km, 71.0° (Epoch: 05 May)

Event Time Altitude Azimuth Distance (km) Brightness Sun altitude
Rises 21:16:32 0° 327° (NNW) 3,407 7.0 -18.9°
Reaches altitude 10° 21:19:03 10° 322° (NW) 2,466 5.9 -19.2°
Maximum altitude 21:24:28 48° 249° (WSW) 1,082 2.8 -19.7°
Enters shadow 21:27:24 25° 188° (S) 1,619 3.3 -20.0°
